Location: Newark
(41.9000°N, 12.4833°E)
Time: 02:18:57
(UTC+00:00)

EO-88 - Pass Details

Date: 28 May 2019
Orbit: 484 x 494 km, 97.4° (Epoch: 25 June)

Event Time Altitude Azimuth Distance (km) Brightness Sun altitude
Exits shadow 20:17:24 30° 120° (ESE) 918 ? -15.4°
Maximum altitude 20:18:39 41° 73° (ENE) 728 ? -15.6°
Drops below altitude 10° 20:22:07 10° 2° (N) 1,701 ? -16.0°
Sets 20:24:16 0° 356° (N) 2,588 ? -16.2°
